START_TIME,STEP,MOV.,M34,t_acc.,L5,t_acc.,L18,t_acc.,L14,t_acc.
1981-08-30 09:00:25.250 ,6,1,0.,12.0,0.,12.0,0.,12.0,0.,12.0
1981-08-30 09:00:37.250 ,6,1,0.,12.0,0.,12.0,0.,12.0,0.,12.0
1981-08-30 09:00:49.250 ,7,1,0.,12.0,0.,12.0,0.,12.0,0.,12.0
1981-08-30 09:01:01.250 ,7,1,0.,12.0,0.,12.0,0.,12.0,0.,12.0
1981-08-30 09:01:13.250 ,7,1,0.,12.0,0.,12.0,0.,12.0,0.,12.0
1981-08-30 09:01:25.250 ,7,1,0.,12.0,0.,12.0,0.,12.0,0.,12.0
1981-08-30 09:01:37.250 ,6,1,0.,12.0,0.,12.0,0.,12.0,0.,12.0
1981-08-30 09:01:49.250 ,6,1,0.,12.0,0.,12.0,0.,12.0,0.,12.0
1981-08-30 09:02:01.250 ,5,1,0.,12.0,0.,12.0,0.,12.0,0.,12.0
1981-08-30 09:02:13.250 ,5,1,0.,12.0,0.,12.0,0.,12.0,0.,12.0
1981-08-30 09:02:25.250 ,4,1,0.,12.0,0.,12.0,0.,12.0,0.,12.0
1981-08-30 09:02:37.250 ,4,1,0.,12.0,0.,12.0,0.,12.0,0.,12.0
1981-08-30 09:02:49.250 ,3,1,0.,12.0,0.,12.0,0.,12.0,0.,12.0
1981-08-30 09:03:01.250 ,3,1,0.,12.0,0.,12.0,0.,12.0,0.,12.0
1981-08-30 09:03:13.250 ,2,1,0.,12.0,0.,12.0,0.,12.0,0.,12.0
1981-08-30 09:03:25.250 ,2,1,0.,12.0,0.,12.0,0.,12.0,0.,12.0
1981-08-30 09:03:37.250 ,1,1,0.,12.0,0.,12.0,0.,12.0,0.,12.0
1981-08-30 09:03:49.250 ,1,1,0.,12.0,0.,12.0,0.,12.0,0.,12.0
1981-08-30 09:04:01.250 ,0,1,0.,12.0,0.,12.0,0.,12.0,0.,12.0
1981-08-30 09:04:13.250 ,0,1,0.,12.0,0.,12.0,0.,12.0,0.,12.0
1981-08-30 09:04:25.250 ,0,1,0.,12.0,0.,12.0,0.,12.0,0.,12.0
1981-08-30 09:04:37.250 ,0,1,0.,12.0,0.,12.0,0.,12.0,0.,12.0
1981-08-30 09:04:49.250 ,1,1,0.,12.0,0.,12.0,0.,12.0,0.,12.0
1981-08-30 09:05:01.250 ,1,1,0.,12.0,0.,12.0,0.,12.0,0.,12.0
1981-08-30 09:05:13.250 ,2,1,0.,12.0,0.,12.0,0.,12.0,0.,12.0
1981-08-30 09:05:25.250 ,2,1,0.,12.0,0.,12.0,0.,12.0,0.,12.0
1981-08-30 09:05:37.250 ,3,1,0.,12.0,0.,12.0,0.,12.0,0.,12.0
1981-08-30 09:05:49.250 ,3,1,0.,12.0,0.,12.0,0.,12.0,0.,12.0
1981-08-30 09:06:01.250 ,3,0,0.,12.0,0.,12.0,0.,12.0,0.,12.0
1981-08-30 09:06:13.250 ,3,0,0.,12.0,0.,12.0,0.,12.0,0.,12.0
1981-08-30 09:06:25.250 ,4,1,0.,12.0,0.,12.0,0.,12.0,0.,12.0
1981-08-30 09:06:37.250 ,4,1,0.,12.0,0.,12.0,0.,12.0,0.,12.0
1981-08-30 09:06:49.250 ,4,0,0.,12.0,0.,12.0,0.,12.0,0.,12.0
1981-08-30 09:07:01.250 ,4,0,0.,12.0,0.,12.0,0.,12.0,0.,12.0
1981-08-30 09:07:13.250 ,5,1,0.,12.0,0.,12.0,0.,12.0,0.,12.0
1981-08-30 09:07:25.250 ,5,1,0.,12.0,0.,12.0,0.,12.0,0.,12.0
1981-08-30 09:07:37.250 ,5,0,0.,12.0,0.,12.0,0.,12.0,0.,12.0
1981-08-30 09:07:49.250 ,5,0,0.,12.0,0.,12.0,0.,12.0,0.,12.0
1981-08-30 09:08:01.250 ,6,1,0.,12.0,0.,12.0,0.,12.0,1.,12.0
1981-08-30 09:08:13.250 ,6,1,0.,12.0,0.,12.0,0.,12.0,0.,12.0
1981-08-30 09:08:25.250 ,6,0,0.,12.0,0.,12.0,0.,12.0,0.,12.0
1981-08-30 09:08:37.250 ,6,0,0.,12.0,0.,12.0,0.,12.0,0.,12.0
1981-08-30 09:08:49.250 ,7,1,0.,12.0,0.,12.0,0.,12.0,0.,12.0
1981-08-30 09:09:01.250 ,7,1,0.,12.0,0.,12.0,0.,12.0,0.,12.0
1981-08-30 09:09:13.250 ,7,0,0.,12.0,0.,12.0,0.,12.0,0.,12.0
1981-08-30 09:09:25.250 ,7,0,0.,12.0,0.,12.0,0.,12.0,0.,12.0
1981-08-30 09:09:37.250 ,7,1,0.,12.0,0.,12.0,0.,12.0,0.,12.0
1981-08-30 09:09:49.250 ,7,1,0.,12.0,0.,12.0,0.,12.0,0.,12.0
1981-08-30 09:10:01.250 ,7,0,0.,12.0,0.,12.0,0.,12.0,0.,12.0
1981-08-30 09:10:13.250 ,7,0,0.,12.0,0.,12.0,0.,12.0,0.,12.0
1981-08-30 09:10:25.250 ,6,1,0.,12.0,0.,12.0,0.,12.0,0.,12.0
1981-08-30 09:10:37.250 ,6,1,0.,12.0,0.,12.0,0.,12.0,0.,12.0
1981-08-30 09:10:49.250 ,6,0,0.,12.0,0.,12.0,0.,12.0,0.,12.0
1981-08-30 09:11:01.250 ,6,0,0.,12.0,0.,12.0,0.,12.0,0.,12.0
1981-08-30 09:11:13.250 ,5,1,0.,12.0,0.,12.0,0.,12.0,0.,12.0
1981-08-30 09:11:25.250 ,5,1,0.,12.0,0.,12.0,0.,12.0,0.,12.0
1981-08-30 09:11:37.250 ,5,0,0.,12.0,0.,12.0,0.,12.0,0.,12.0
1981-08-30 09:11:49.250 ,5,0,0.,12.0,0.,12.0,0.,12.0,0.,12.0
1981-08-30 09:12:01.250 ,4,1,0.,12.0,0.,12.0,0.,12.0,0.,12.0
1981-08-30 09:12:13.250 ,4,1,0.,12.0,0.,12.0,0.,12.0,0.,12.0
1981-08-30 09:12:25.250 ,4,0,0.,12.0,0.,12.0,0.,12.0,0.,12.0
1981-08-30 09:12:37.250 ,4,0,0.,12.0,0.,12.0,0.,12.0,0.,12.0
1981-08-30 09:12:49.250 ,3,1,0.,12.0,0.,12.0,0.,12.0,0.,12.0
1981-08-30 09:13:01.250 ,3,1,0.,12.0,0.,12.0,0.,12.0,0.,12.0
1981-08-30 09:13:13.250 ,3,0,0.,12.0,0.,12.0,0.,12.0,0.,12.0
1981-08-30 09:13:25.250 ,3,0,0.,12.0,0.,12.0,0.,12.0,0.,12.0
1981-08-30 09:13:37.250 ,2,1,0.,12.0,0.,12.0,0.,12.0,0.,12.0
1981-08-30 09:13:49.250 ,2,1,0.,12.0,0.,12.0,0.,12.0,0.,12.0
1981-08-30 09:14:01.250 ,2,0,0.,12.0,0.,12.0,0.,12.0,0.,12.0
1981-08-30 09:14:13.250 ,2,0,0.,12.0,0.,12.0,0.,12.0,0.,12.0
1981-08-30 09:14:25.250 ,1,1,0.,12.0,0.,12.0,0.,12.0,0.,12.0
1981-08-30 09:14:37.250 ,1,1,0.,12.0,0.,12.0,0.,12.0,0.,12.0
1981-08-30 09:14:49.250 ,1,0,0.,12.0,0.,12.0,0.,12.0,0.,12.0
1981-08-30 09:15:01.250 ,1,0,0.,12.0,0.,12.0,0.,12.0,0.,12.0
1981-08-30 09:15:13.250 ,0,1,0.,12.0,0.,12.0,0.,12.0,0.,12.0
1981-08-30 09:15:25.250 ,0,1,0.,12.0,0.,12.0,0.,12.0,0.,12.0
1981-08-30 09:15:37.250 ,0,0,0.,12.0,0.,12.0,0.,12.0,0.,12.0
1981-08-30 09:15:49.250 ,0,0,0.,12.0,0.,12.0,0.,12.0,0.,12.0
1981-08-30 09:16:01.250 ,0,1,0.,12.0,0.,12.0,0.,12.0,0.,12.0
1981-08-30 09:16:13.250 ,0,1,0.,12.0,0.,12.0,0.,12.0,0.,12.0
1981-08-30 09:16:25.250 ,0,0,0.,12.0,0.,12.0,0.,12.0,0.,12.0
1981-08-30 09:16:37.250 ,0,0,0.,12.0,0.,12.0,0.,12.0,0.,12.0
1981-08-30 09:16:49.240 ,1,1,0.,12.0,0.,12.0,0.,12.0,0.,12.0
1981-08-30 09:17:01.240 ,1,1,0.,12.0,0.,12.0,0.,12.0,0.,12.0
1981-08-30 09:17:13.240 ,1,0,0.,12.0,0.,12.0,0.,12.0,0.,12.0
1981-08-30 09:17:25.240 ,1,0,0.,12.0,0.,12.0,0.,12.0,0.,12.0
1981-08-30 09:17:37.240 ,2,1,0.,12.0,0.,12.0,0.,12.0,0.,12.0
1981-08-30 09:17:49.240 ,2,1,0.,12.0,0.,12.0,0.,12.0,0.,12.0
1981-08-30 09:18:01.240 ,2,0,0.,12.0,0.,12.0,0.,12.0,0.,12.0
1981-08-30 09:18:13.240 ,2,0,0.,12.0,0.,12.0,0.,12.0,0.,12.0
1981-08-30 09:18:25.240 ,3,1,0.,12.0,0.,12.0,0.,12.0,0.,12.0
1981-08-30 09:18:37.240 ,3,1,0.,12.0,0.,12.0,0.,12.0,0.,12.0
1981-08-30 09:18:49.240 ,4,1,0.,12.0,0.,12.0,0.,12.0,0.,12.0
1981-08-30 09:19:01.240 ,4,1,0.,12.0,0.,12.0,0.,12.0,0.,12.0
1981-08-30 09:19:13.240 ,5,1,0.,12.0,0.,12.0,0.,12.0,0.,12.0
1981-08-30 09:19:25.240 ,5,1,0.,12.0,0.,12.0,0.,12.0,0.,12.0
1981-08-30 09:19:37.240 ,6,1,0.,12.0,0.,12.0,0.,12.0,0.,12.0
1981-08-30 09:19:49.240 ,6,1,0.,12.0,0.,12.0,0.,12.0,0.,12.0
1981-08-30 09:20:01.240 ,7,1,0.,12.0,0.,12.0,0.,12.0,0.,12.0
1981-08-30 09:20:13.240 ,7,1,0.,12.0,0.,12.0,0.,12.0,0.,12.0
1981-08-30 09:20:25.240 ,7,1,0.,12.0,0.,12.0,0.,12.0,0.,12.0
1981-08-30 09:20:37.240 ,7,1,0.,12.0,0.,12.0,0.,12.0,0.,12.0
1981-08-30 09:20:49.240 ,6,1,0.,12.0,0.,12.0,0.,12.0,0.,12.0
1981-08-30 09:21:01.240 ,6,1,0.,12.0,0.,12.0,0.,12.0,0.,12.0
1981-08-30 09:21:13.240 ,5,1,0.,12.0,0.,12.0,0.,12.0,0.,12.0
1981-08-30 09:21:25.240 ,5,1,0.,12.0,0.,12.0,0.,12.0,0.,12.0
1981-08-30 09:21:37.240 ,4,1,0.,12.0,0.,12.0,0.,12.0,0.,12.0
1981-08-30 09:21:49.240 ,4,1,0.,12.0,0.,12.0,0.,12.0,0.,12.0
1981-08-30 09:22:01.240 ,3,1,0.,12.0,0.,12.0,0.,12.0,0.,12.0
1981-08-30 09:22:13.240 ,3,1,0.,12.0,0.,12.0,0.,12.0,0.,12.0
1981-08-30 09:22:25.240 ,2,1,0.,12.0,0.,12.0,0.,12.0,0.,12.0
1981-08-30 09:22:37.240 ,2,1,0.,12.0,0.,12.0,0.,12.0,0.,12.0
1981-08-30 09:22:49.240 ,1,1,0.,12.0,0.,12.0,0.,12.0,0.,12.0
1981-08-30 09:23:01.240 ,1,1,0.,12.0,0.,12.0,0.,12.0,0.,12.0
1981-08-30 09:23:13.240 ,0,1,0.,12.0,0.,12.0,0.,12.0,0.,12.0
1981-08-30 09:23:25.240 ,0,1,0.,12.0,0.,12.0,0.,12.0,0.,12.0
1981-08-30 09:23:37.240 ,0,1,0.,12.0,0.,12.0,0.,12.0,0.,12.0
1981-08-30 09:23:49.240 ,0,1,0.,12.0,0.,12.0,0.,12.0,0.,12.0
1981-08-30 09:24:01.240 ,1,1,0.,12.0,0.,12.0,0.,12.0,0.,12.0
1981-08-30 09:24:13.240 ,1,1,0.,12.0,0.,12.0,0.,12.0,0.,12.0
1981-08-30 09:24:25.240 ,2,1,0.,12.0,0.,12.0,0.,12.0,0.,12.0
1981-08-30 09:24:37.240 ,2,1,0.,12.0,0.,12.0,0.,12.0,0.,12.0
1981-08-30 09:24:49.240 ,3,1,0.,12.0,0.,12.0,0.,12.0,0.,12.0
1981-08-30 09:25:01.240 ,3,1,0.,12.0,0.,12.0,0.,12.0,0.,12.0
1981-08-30 09:25:13.240 ,3,0,0.,12.0,0.,12.0,0.,12.0,0.,12.0
1981-08-30 09:25:25.240 ,3,0,0.,12.0,0.,12.0,0.,12.0,0.,12.0
1981-08-30 09:25:37.240 ,4,1,0.,12.0,0.,12.0,0.,12.0,0.,12.0
1981-08-30 09:25:49.240 ,4,1,0.,12.0,0.,12.0,0.,12.0,0.,12.0
1981-08-30 09:26:01.240 ,4,0,0.,12.0,0.,12.0,0.,12.0,0.,12.0
1981-08-30 09:26:13.240 ,4,0,0.,12.0,0.,12.0,0.,12.0,0.,12.0
1981-08-30 09:26:25.240 ,5,1,0.,12.0,0.,12.0,0.,12.0,0.,12.0
1981-08-30 09:26:37.240 ,5,1,0.,12.0,0.,12.0,0.,12.0,0.,12.0
1981-08-30 09:26:49.240 ,5,0,0.,12.0,0.,12.0,0.,12.0,0.,12.0
1981-08-30 09:27:01.240 ,5,0,0.,12.0,0.,12.0,0.,12.0,0.,12.0
1981-08-30 09:27:13.240 ,6,1,0.,12.0,0.,12.0,0.,12.0,0.,12.0
1981-08-30 09:27:25.240 ,6,1,0.,12.0,0.,12.0,0.,12.0,0.,12.0
1981-08-30 09:27:37.240 ,6,0,0.,12.0,0.,12.0,0.,12.0,0.,12.0
1981-08-30 09:27:49.240 ,6,0,0.,12.0,0.,12.0,0.,12.0,0.,12.0
1981-08-30 09:28:01.240 ,7,1,0.,12.0,0.,12.0,0.,12.0,0.,12.0
1981-08-30 09:28:13.240 ,7,1,0.,12.0,0.,12.0,0.,12.0,0.,12.0
1981-08-30 09:28:25.240 ,7,0,0.,12.0,0.,12.0,0.,12.0,0.,12.0
1981-08-30 09:28:37.240 ,7,0,0.,12.0,0.,12.0,0.,12.0,0.,12.0
1981-08-30 09:28:49.240 ,7,1,0.,12.0,0.,12.0,0.,12.0,0.,12.0
1981-08-30 09:29:01.240 ,7,1,0.,12.0,0.,12.0,0.,12.0,0.,12.0
1981-08-30 09:29:13.240 ,7,0,0.,12.0,0.,12.0,0.,12.0,0.,12.0
1981-08-30 09:29:25.240 ,7,0,0.,12.0,0.,12.0,0.,12.0,0.,12.0
1981-08-30 09:29:37.240 ,6,1,0.,12.0,0.,12.0,0.,12.0,0.,12.0
1981-08-30 09:29:49.240 ,6,1,0.,12.0,0.,12.0,0.,12.0,0.,12.0
1981-08-30 09:30:01.240 ,6,0,0.,12.0,0.,12.0,0.,12.0,0.,12.0
1981-08-30 09:30:13.240 ,6,0,0.,12.0,0.,12.0,0.,12.0,0.,12.0
1981-08-30 09:30:25.240 ,5,1,0.,12.0,0.,12.0,0.,12.0,0.,12.0
1981-08-30 09:30:37.240 ,5,1,0.,12.0,0.,12.0,0.,12.0,0.,12.0
1981-08-30 09:30:49.240 ,5,0,0.,12.0,0.,12.0,0.,12.0,0.,12.0
1981-08-30 09:31:01.240 ,5,0,0.,12.0,0.,12.0,0.,12.0,0.,12.0
1981-08-30 09:31:13.240 ,4,1,0.,12.0,0.,12.0,0.,12.0,0.,12.0
1981-08-30 09:31:25.240 ,4,1,0.,12.0,0.,12.0,0.,12.0,0.,12.0
1981-08-30 09:31:37.240 ,4,0,0.,12.0,0.,12.0,0.,12.0,0.,12.0
1981-08-30 09:31:49.240 ,4,0,0.,12.0,0.,12.0,0.,12.0,0.,12.0
1981-08-30 09:32:01.240 ,3,1,0.,12.0,0.,12.0,0.,12.0,0.,12.0
1981-08-30 09:32:13.240 ,3,1,0.,12.0,0.,12.0,0.,12.0,0.,12.0
1981-08-30 09:32:25.240 ,3,0,0.,12.0,0.,12.0,0.,12.0,0.,12.0
1981-08-30 09:32:37.240 ,3,0,0.,12.0,0.,12.0,0.,12.0,0.,12.0
1981-08-30 09:32:49.240 ,2,1,0.,12.0,0.,12.0,0.,12.0,0.,12.0
1981-08-30 09:33:01.240 ,2,1,0.,12.0,0.,12.0,0.,12.0,0.,12.0
1981-08-30 09:33:13.240 ,2,0,0.,12.0,0.,12.0,0.,12.0,0.,12.0
1981-08-30 09:33:25.240 ,2,0,0.,12.0,0.,12.0,0.,12.0,0.,12.0
1981-08-30 09:33:37.240 ,1,1,0.,12.0,0.,12.0,0.,12.0,0.,12.0
1981-08-30 09:33:49.240 ,1,1,0.,12.0,0.,12.0,0.,12.0,0.,12.0
1981-08-30 09:34:01.240 ,1,0,0.,12.0,0.,12.0,0.,12.0,0.,12.0
1981-08-30 09:34:13.240 ,1,0,0.,12.0,0.,12.0,0.,12.0,0.,12.0
1981-08-30 09:34:25.240 ,0,1,0.,12.0,0.,12.0,0.,12.0,0.,12.0
1981-08-30 09:34:37.240 ,0,1,0.,12.0,0.,12.0,0.,12.0,0.,12.0
1981-08-30 09:34:49.240 ,0,0,0.,12.0,0.,12.0,0.,12.0,0.,12.0
1981-08-30 09:35:01.240 ,0,0,0.,12.0,0.,12.0,0.,12.0,0.,12.0
1981-08-30 09:35:13.240 ,0,1,0.,12.0,0.,12.0,0.,12.0,0.,12.0
1981-08-30 09:35:25.240 ,0,1,0.,12.0,0.,12.0,0.,12.0,0.,12.0
1981-08-30 09:35:37.240 ,0,0,0.,12.0,0.,12.0,0.,12.0,0.,12.0
1981-08-30 09:35:49.240 ,0,0,0.,12.0,0.,12.0,0.,12.0,0.,12.0
1981-08-30 09:36:01.240 ,1,1,0.,12.0,0.,12.0,0.,12.0,0.,12.0
1981-08-30 09:36:13.240 ,1,1,0.,12.0,0.,12.0,0.,12.0,0.,12.0
1981-08-30 09:36:25.240 ,1,0,0.,12.0,0.,12.0,0.,12.0,0.,12.0
1981-08-30 09:36:37.240 ,1,0,0.,12.0,0.,12.0,0.,12.0,0.,12.0
1981-08-30 09:36:49.240 ,2,1,0.,12.0,0.,12.0,0.,12.0,0.,12.0
1981-08-30 09:37:01.240 ,2,1,0.,12.0,0.,12.0,0.,12.0,0.,12.0
1981-08-30 09:37:13.240 ,2,0,0.,12.0,0.,12.0,0.,12.0,0.,12.0
1981-08-30 09:37:25.240 ,2,0,0.,12.0,0.,12.0,0.,12.0,0.,12.0
1981-08-30 09:37:37.240 ,3,1,0.,12.0,0.,12.0,0.,12.0,0.,12.0
1981-08-30 09:37:49.240 ,3,1,0.,12.0,0.,12.0,0.,12.0,0.,12.0
1981-08-30 09:38:01.240 ,4,1,0.,12.0,0.,12.0,0.,12.0,0.,12.0
1981-08-30 09:38:13.240 ,4,1,0.,12.0,0.,12.0,0.,12.0,0.,12.0
1981-08-30 09:38:25.240 ,5,1,0.,12.0,0.,12.0,0.,12.0,0.,12.0
1981-08-30 09:38:37.240 ,5,1,0.,12.0,0.,12.0,0.,12.0,0.,12.0
1981-08-30 09:38:49.240 ,6,1,0.,12.0,0.,12.0,0.,12.0,0.,12.0
1981-08-30 09:39:01.240 ,6,1,0.,12.0,0.,12.0,0.,12.0,0.,12.0
1981-08-30 09:39:13.240 ,7,1,0.,12.0,0.,12.0,0.,12.0,0.,12.0
1981-08-30 09:39:25.240 ,7,1,0.,12.0,0.,12.0,0.,12.0,0.,12.0
1981-08-30 09:39:37.240 ,7,1,0.,12.0,0.,12.0,0.,12.0,0.,12.0
1981-08-30 09:39:49.240 ,7,1,0.,12.0,0.,12.0,0.,12.0,0.,12.0
1981-08-30 09:40:01.240 ,6,1,0.,12.0,0.,12.0,0.,12.0,0.,12.0
1981-08-30 09:40:13.240 ,6,1,0.,12.0,0.,12.0,0.,12.0,0.,12.0
1981-08-30 09:40:25.240 ,5,1,0.,12.0,0.,12.0,0.,12.0,0.,12.0
1981-08-30 09:40:37.240 ,5,1,0.,12.0,0.,12.0,0.,12.0,0.,12.0
1981-08-30 09:40:49.240 ,4,1,0.,12.0,0.,12.0,0.,12.0,0.,12.0
1981-08-30 09:41:01.240 ,4,1,0.,12.0,0.,12.0,0.,12.0,0.,12.0
1981-08-30 09:41:13.240 ,3,1,0.,12.0,0.,12.0,0.,12.0,0.,12.0
1981-08-30 09:41:25.240 ,3,1,0.,12.0,0.,12.0,0.,12.0,0.,12.0
1981-08-30 09:41:37.240 ,2,1,0.,12.0,0.,12.0,0.,12.0,0.,12.0
1981-08-30 09:41:49.240 ,2,1,0.,12.0,0.,12.0,0.,12.0,0.,12.0
1981-08-30 09:42:01.240 ,1,1,0.,12.0,0.,12.0,0.,12.0,0.,12.0
1981-08-30 09:42:13.240 ,1,1,0.,12.0,0.,12.0,0.,12.0,0.,12.0
1981-08-30 09:42:25.240 ,0,1,0.,12.0,0.,12.0,0.,12.0,0.,12.0
1981-08-30 09:42:37.240 ,0,1,0.,12.0,0.,12.0,0.,12.0,0.,12.0
1981-08-30 09:42:49.240 ,0,1,0.,12.0,0.,12.0,0.,12.0,0.,12.0
1981-08-30 09:43:01.240 ,0,1,0.,12.0,0.,12.0,0.,12.0,0.,12.0
1981-08-30 09:43:13.240 ,1,1,0.,12.0,0.,12.0,0.,12.0,0.,12.0
1981-08-30 09:43:25.240 ,1,1,0.,12.0,0.,12.0,0.,12.0,0.,12.0
1981-08-30 09:43:37.240 ,2,1,0.,12.0,0.,12.0,0.,12.0,0.,12.0
1981-08-30 09:43:49.240 ,2,1,0.,12.0,0.,12.0,0.,12.0,0.,12.0
1981-08-30 09:44:01.240 ,3,1,0.,12.0,0.,12.0,0.,12.0,0.,12.0
1981-08-30 09:44:13.240 ,3,1,0.,12.0,0.,12.0,0.,12.0,0.,12.0
1981-08-30 09:44:25.240 ,3,0,0.,12.0,0.,12.0,0.,12.0,0.,12.0
1981-08-30 09:44:37.240 ,3,0,0.,12.0,0.,12.0,0.,12.0,0.,12.0
1981-08-30 09:44:49.240 ,4,1,0.,12.0,0.,12.0,0.,12.0,0.,12.0
1981-08-30 09:45:01.240 ,4,1,0.,12.0,0.,12.0,0.,12.0,0.,12.0
1981-08-30 09:45:13.240 ,4,0,0.,12.0,0.,12.0,0.,12.0,0.,12.0
1981-08-30 09:45:25.240 ,4,0,0.,12.0,0.,12.0,0.,12.0,0.,12.0
1981-08-30 09:45:37.240 ,5,1,0.,12.0,0.,12.0,0.,12.0,0.,12.0
1981-08-30 09:45:49.240 ,5,1,0.,12.0,0.,12.0,0.,12.0,0.,12.0
1981-08-30 09:46:01.240 ,5,0,0.,12.0,0.,12.0,0.,12.0,0.,12.0
1981-08-30 09:46:13.240 ,5,0,0.,12.0,0.,12.0,0.,12.0,0.,12.0
1981-08-30 09:46:25.240 ,6,1,0.,12.0,0.,12.0,0.,12.0,0.,12.0
1981-08-30 09:46:37.240 ,6,1,0.,12.0,0.,12.0,0.,12.0,0.,12.0
1981-08-30 09:46:49.240 ,6,0,0.,12.0,0.,12.0,0.,12.0,0.,12.0
1981-08-30 09:47:01.240 ,6,0,0.,12.0,0.,12.0,0.,12.0,0.,12.0
1981-08-30 09:47:13.240 ,7,1,0.,12.0,0.,12.0,0.,12.0,0.,12.0
1981-08-30 09:47:25.240 ,7,1,0.,12.0,0.,12.0,0.,12.0,0.,12.0
1981-08-30 09:47:37.240 ,7,0,0.,12.0,0.,12.0,0.,12.0,0.,12.0
1981-08-30 09:47:49.240 ,7,0,0.,12.0,0.,12.0,0.,12.0,0.,12.0
1981-08-30 09:48:01.240 ,7,1,0.,12.0,0.,12.0,0.,12.0,0.,12.0
1981-08-30 09:48:13.240 ,7,1,0.,12.0,0.,12.0,0.,12.0,0.,12.0
1981-08-30 09:48:25.240 ,7,0,0.,12.0,0.,12.0,0.,12.0,0.,12.0
1981-08-30 09:48:37.240 ,7,0,0.,12.0,0.,12.0,0.,12.0,0.,12.0
1981-08-30 09:48:49.240 ,6,1,0.,12.0,0.,12.0,0.,12.0,0.,12.0
1981-08-30 09:49:01.240 ,6,1,0.,12.0,0.,12.0,0.,12.0,0.,12.0
1981-08-30 09:49:13.240 ,6,0,0.,12.0,0.,12.0,0.,12.0,0.,12.0
1981-08-30 09:49:25.240 ,6,0,0.,12.0,0.,12.0,0.,12.0,0.,12.0
1981-08-30 09:49:37.240 ,5,1,0.,12.0,0.,12.0,0.,12.0,0.,12.0
1981-08-30 09:49:49.240 ,5,1,0.,12.0,0.,12.0,0.,12.0,0.,12.0
1981-08-30 09:50:01.240 ,5,0,0.,12.0,0.,12.0,0.,12.0,0.,12.0
1981-08-30 09:50:13.240 ,5,0,0.,12.0,0.,12.0,0.,12.0,0.,12.0
1981-08-30 09:50:25.240 ,4,1,0.,12.0,0.,12.0,0.,12.0,0.,12.0
1981-08-30 09:50:37.240 ,4,1,0.,12.0,0.,12.0,0.,12.0,0.,12.0
1981-08-30 09:50:49.240 ,4,0,0.,12.0,0.,12.0,0.,12.0,0.,12.0
1981-08-30 09:51:01.240 ,4,0,0.,12.0,0.,12.0,0.,12.0,0.,12.0
1981-08-30 09:51:13.240 ,3,1,0.,12.0,0.,12.0,0.,12.0,0.,12.0
1981-08-30 09:51:25.240 ,3,1,0.,12.0,0.,12.0,0.,12.0,0.,12.0
1981-08-30 09:51:37.240 ,3,0,0.,12.0,0.,12.0,0.,12.0,0.,12.0
1981-08-30 09:51:49.240 ,3,0,0.,12.0,0.,12.0,0.,12.0,0.,12.0
1981-08-30 09:52:01.240 ,2,1,0.,12.0,0.,12.0,0.,12.0,0.,12.0
1981-08-30 09:52:13.240 ,2,1,0.,12.0,0.,12.0,0.,12.0,0.,12.0
1981-08-30 09:52:25.240 ,2,0,0.,12.0,0.,12.0,0.,12.0,0.,12.0
1981-08-30 09:52:37.240 ,2,0,0.,12.0,0.,12.0,0.,12.0,0.,12.0
1981-08-30 09:52:49.240 ,1,1,0.,12.0,0.,12.0,0.,12.0,0.,12.0
1981-08-30 09:53:01.240 ,1,1,0.,12.0,0.,12.0,0.,12.0,0.,12.0
1981-08-30 09:53:13.240 ,1,0,0.,12.0,0.,12.0,0.,12.0,0.,12.0
1981-08-30 09:53:25.240 ,1,0,0.,12.0,0.,12.0,0.,12.0,0.,12.0
1981-08-30 09:53:37.240 ,0,1,0.,12.0,0.,12.0,0.,12.0,0.,12.0
1981-08-30 09:53:49.240 ,0,1,0.,12.0,0.,12.0,0.,12.0,0.,12.0
1981-08-30 09:54:01.240 ,0,0,0.,12.0,0.,12.0,0.,12.0,0.,12.0
1981-08-30 09:54:13.240 ,0,0,0.,12.0,0.,12.0,0.,12.0,0.,12.0
1981-08-30 09:54:25.240 ,0,1,0.,12.0,0.,12.0,0.,12.0,0.,12.0
1981-08-30 09:54:37.240 ,0,1,0.,12.0,0.,12.0,0.,12.0,0.,12.0
1981-08-30 09:54:49.240 ,0,0,0.,12.0,0.,12.0,0.,12.0,0.,12.0
1981-08-30 09:55:01.240 ,0,0,0.,12.0,0.,12.0,0.,12.0,0.,12.0
1981-08-30 09:55:13.240 ,1,1,0.,12.0,0.,12.0,0.,12.0,0.,12.0
1981-08-30 09:55:25.240 ,1,1,0.,12.0,0.,12.0,0.,12.0,0.,12.0
1981-08-30 09:55:37.240 ,1,0,0.,12.0,0.,12.0,0.,12.0,0.,12.0
1981-08-30 09:55:49.240 ,1,0,0.,12.0,0.,12.0,0.,12.0,0.,12.0
1981-08-30 09:56:01.240 ,2,1,0.,12.0,0.,12.0,0.,12.0,0.,12.0
1981-08-30 09:56:13.240 ,2,1,0.,12.0,0.,12.0,0.,12.0,0.,12.0
1981-08-30 09:56:25.240 ,2,0,0.,12.0,0.,12.0,0.,12.0,0.,12.0
1981-08-30 09:56:37.240 ,2,0,0.,12.0,0.,12.0,0.,12.0,0.,12.0
1981-08-30 09:56:49.240 ,3,1,0.,12.0,0.,12.0,0.,12.0,0.,12.0
1981-08-30 09:57:01.240 ,3,1,0.,12.0,0.,12.0,0.,12.0,0.,12.0
1981-08-30 09:57:13.240 ,4,1,0.,12.0,0.,12.0,0.,12.0,0.,12.0
1981-08-30 09:57:25.240 ,4,1,0.,12.0,0.,12.0,0.,12.0,0.,12.0
1981-08-30 09:57:37.240 ,5,1,0.,12.0,0.,12.0,0.,12.0,0.,12.0
1981-08-30 09:57:49.240 ,5,1,0.,12.0,0.,12.0,0.,12.0,0.,12.0
1981-08-30 09:58:01.240 ,6,1,0.,12.0,0.,12.0,0.,12.0,0.,12.0
1981-08-30 09:58:13.240 ,6,1,0.,12.0,0.,12.0,0.,12.0,0.,12.0
1981-08-30 09:58:25.240 ,7,1,0.,12.0,0.,12.0,0.,12.0,0.,12.0
1981-08-30 09:58:37.240 ,7,1,0.,12.0,0.,12.0,0.,12.0,0.,12.0
1981-08-30 09:58:49.240 ,7,1,0.,12.0,0.,12.0,0.,12.0,0.,12.0
1981-08-30 09:59:01.240 ,7,1,0.,12.0,0.,12.0,0.,12.0,0.,12.0
1981-08-30 09:59:13.240 ,6,1,0.,12.0,0.,12.0,0.,12.0,0.,12.0
1981-08-30 09:59:25.240 ,6,1,0.,12.0,0.,12.0,0.,12.0,0.,12.0
1981-08-30 09:59:37.240 ,5,1,0.,12.0,0.,12.0,0.,12.0,0.,12.0
1981-08-30 09:59:49.240 ,5,1,0.,12.0,0.,12.0,0.,12.0,0.,12.0
1981-08-30 10:00:01.240 ,4,1,0.,12.0,0.,12.0,0.,12.0,0.,12.0
1981-08-30 10:00:13.240 ,4,1,0.,12.0,0.,12.0,0.,12.0,0.,12.0
1981-08-30 10:00:25.240 ,3,1,0.,12.0,0.,12.0,0.,12.0,0.,12.0
1981-08-30 10:00:37.240 ,3,1,0.,12.0,0.,12.0,0.,12.0,0.,12.0
1981-08-30 10:00:49.240 ,2,1,0.,12.0,0.,12.0,0.,12.0,0.,12.0
1981-08-30 10:01:01.240 ,2,1,0.,12.0,0.,12.0,0.,12.0,0.,12.0
1981-08-30 10:01:13.240 ,1,1,0.,12.0,0.,12.0,0.,12.0,0.,12.0
1981-08-30 10:01:25.240 ,1,1,0.,12.0,0.,12.0,0.,12.0,0.,12.0
1981-08-30 10:01:37.240 ,0,1,0.,12.0,0.,12.0,0.,12.0,0.,12.0
1981-08-30 10:01:49.240 ,0,1,0.,12.0,0.,12.0,0.,12.0,0.,12.0
1981-08-30 10:02:01.240 ,0,1,0.,12.0,0.,12.0,0.,12.0,0.,12.0
1981-08-30 10:02:13.240 ,0,1,0.,12.0,0.,12.0,0.,12.0,0.,12.0
1981-08-30 10:02:25.240 ,1,1,0.,12.0,0.,12.0,0.,12.0,0.,12.0
1981-08-30 10:02:37.240 ,1,1,0.,12.0,0.,12.0,0.,12.0,0.,12.0
1981-08-30 10:02:49.240 ,2,1,0.,12.0,0.,12.0,0.,12.0,0.,12.0
1981-08-30 10:03:01.240 ,2,1,0.,12.0,0.,12.0,0.,12.0,0.,12.0
1981-08-30 10:03:13.240 ,3,1,0.,12.0,0.,12.0,0.,12.0,0.,12.0
1981-08-30 10:03:25.240 ,3,1,0.,12.0,0.,12.0,0.,12.0,0.,12.0
1981-08-30 10:03:37.240 ,3,0,0.,12.0,0.,12.0,0.,12.0,0.,12.0
1981-08-30 10:03:49.240 ,3,0,0.,12.0,0.,12.0,0.,12.0,0.,12.0
1981-08-30 10:04:01.240 ,4,1,0.,12.0,0.,12.0,0.,12.0,0.,12.0
1981-08-30 10:04:13.240 ,4,1,0.,12.0,0.,12.0,0.,12.0,0.,12.0
1981-08-30 10:04:25.240 ,4,0,0.,12.0,0.,12.0,0.,12.0,0.,12.0
1981-08-30 10:04:37.240 ,4,0,0.,12.0,0.,12.0,0.,12.0,0.,12.0
1981-08-30 10:04:49.240 ,5,1,0.,12.0,0.,12.0,0.,12.0,0.,12.0
1981-08-30 10:05:01.240 ,5,1,0.,12.0,0.,12.0,0.,12.0,0.,12.0
1981-08-30 10:05:13.240 ,5,0,0.,12.0,0.,12.0,0.,12.0,0.,12.0
1981-08-30 10:05:25.240 ,5,0,0.,12.0,0.,12.0,0.,12.0,0.,12.0
1981-08-30 10:05:37.240 ,6,1,0.,12.0,0.,12.0,0.,12.0,0.,12.0
1981-08-30 10:05:49.240 ,6,1,0.,12.0,0.,12.0,0.,12.0,0.,12.0
1981-08-30 10:06:01.240 ,6,0,0.,12.0,0.,12.0,0.,12.0,0.,12.0
1981-08-30 10:06:13.240 ,6,0,0.,12.0,0.,12.0,0.,12.0,0.,12.0
1981-08-30 10:06:25.240 ,7,1,0.,12.0,0.,12.0,0.,12.0,0.,12.0
1981-08-30 10:06:37.240 ,7,1,0.,12.0,0.,12.0,0.,12.0,0.,12.0
1981-08-30 10:06:49.240 ,7,0,0.,12.0,0.,12.0,0.,12.0,0.,12.0
1981-08-30 10:07:01.240 ,7,0,0.,12.0,0.,12.0,0.,12.0,0.,12.0
1981-08-30 10:07:13.240 ,7,1,0.,12.0,0.,12.0,0.,12.0,0.,12.0
1981-08-30 10:07:25.240 ,7,1,0.,12.0,0.,12.0,0.,12.0,0.,12.0
1981-08-30 10:07:37.240 ,7,0,0.,12.0,0.,12.0,0.,12.0,0.,12.0
1981-08-30 10:07:49.240 ,7,0,0.,12.0,0.,12.0,0.,12.0,0.,12.0
1981-08-30 10:08:01.240 ,6,1,0.,12.0,0.,12.0,0.,12.0,0.,12.0
1981-08-30 10:08:13.240 ,6,1,0.,12.0,0.,12.0,0.,12.0,0.,12.0
1981-08-30 10:08:25.240 ,6,0,0.,12.0,0.,12.0,0.,12.0,0.,12.0
1981-08-30 10:08:37.240 ,6,0,0.,12.0,0.,12.0,0.,12.0,0.,12.0
1981-08-30 10:08:49.240 ,5,1,0.,12.0,0.,12.0,0.,12.0,0.,12.0
1981-08-30 10:09:01.240 ,5,1,0.,12.0,0.,12.0,0.,12.0,0.,12.0
1981-08-30 10:09:13.240 ,5,0,0.,12.0,0.,12.0,0.,12.0,0.,12.0
1981-08-30 10:09:25.240 ,5,0,0.,12.0,0.,12.0,0.,12.0,0.,12.0
1981-08-30 10:09:37.240 ,4,1,0.,12.0,0.,12.0,0.,12.0,0.,12.0
1981-08-30 10:09:49.240 ,4,1,0.,12.0,0.,12.0,0.,12.0,0.,12.0
1981-08-30 10:10:01.240 ,4,0,0.,12.0,0.,12.0,0.,12.0,0.,12.0
1981-08-30 10:10:13.240 ,4,0,0.,12.0,0.,12.0,0.,12.0,0.,12.0
1981-08-30 10:10:25.240 ,3,1,0.,12.0,0.,12.0,0.,12.0,0.,12.0
1981-08-30 10:10:37.240 ,3,1,0.,12.0,0.,12.0,0.,12.0,0.,12.0
1981-08-30 10:10:49.240 ,3,0,0.,12.0,0.,12.0,0.,12.0,0.,12.0
1981-08-30 10:11:01.240 ,3,0,0.,12.0,0.,12.0,0.,12.0,0.,12.0
1981-08-30 10:11:13.240 ,2,1,0.,12.0,0.,12.0,0.,12.0,0.,12.0
1981-08-30 10:11:25.240 ,2,1,0.,12.0,0.,12.0,0.,12.0,0.,12.0
1981-08-30 10:11:37.240 ,2,0,0.,12.0,0.,12.0,0.,12.0,0.,12.0
1981-08-30 10:11:49.240 ,2,0,0.,12.0,0.,12.0,0.,12.0,0.,12.0
1981-08-30 10:12:01.240 ,1,1,0.,12.0,0.,12.0,0.,12.0,0.,12.0
1981-08-30 10:12:13.240 ,1,1,0.,12.0,0.,12.0,0.,12.0,0.,12.0
1981-08-30 10:12:25.240 ,0,0,0.,12.0,0.,12.0,0.,12.0,0.,12.0
1981-08-30 10:12:37.240 ,0,0,0.,12.0,0.,12.0,0.,12.0,0.,12.0
1981-08-30 10:16:22.840 ,0,0,,0,,0,,0,,0
1981-08-30 10:16:34.840 ,0,0,,0,,0,,0,,0
1981-08-30 10:16:25.240 ,0,0,0.,12.0,0.,12.0,0.,12.0,0.,12.0
1981-08-30 10:16:37.240 ,0,0,0.,12.0,0.,12.0,0.,12.0,0.,12.0
1981-08-30 10:16:49.240 ,5,1,0.,12.0,0.,12.0,0.,12.0,0.,12.0
1981-08-30 10:17:01.240 ,5,1,0.,12.0,0.,12.0,0.,12.0,0.,12.0
1981-08-30 10:17:13.240 ,6,1,0.,12.0,0.,12.0,0.,12.0,0.,12.0
1981-08-30 10:17:25.240 ,6,1,0.,12.0,0.,12.0,0.,12.0,0.,12.0
1981-08-30 10:17:37.240 ,7,1,0.,12.0,0.,12.0,0.,12.0,0.,12.0
1981-08-30 10:17:49.240 ,7,1,0.,12.0,0.,12.0,0.,12.0,0.,12.0
1981-08-30 10:18:01.240 ,7,1,0.,12.0,0.,12.0,0.,12.0,0.,12.0
1981-08-30 10:18:13.240 ,7,1,0.,12.0,0.,12.0,0.,12.0,0.,12.0
1981-08-30 10:18:25.240 ,6,1,0.,12.0,0.,12.0,0.,12.0,0.,12.0
1981-08-30 10:18:37.240 ,6,1,0.,12.0,0.,12.0,0.,12.0,0.,12.0
1981-08-30 10:18:49.240 ,5,1,0.,12.0,0.,12.0,0.,12.0,0.,12.0
1981-08-30 10:19:01.240 ,5,1,0.,12.0,0.,12.0,0.,12.0,0.,12.0
1981-08-30 10:19:13.240 ,4,1,0.,12.0,0.,12.0,0.,12.0,0.,12.0
1981-08-30 10:19:25.240 ,4,1,0.,12.0,0.,12.0,0.,12.0,0.,12.0
1981-08-30 10:19:37.240 ,3,1,0.,12.0,0.,12.0,0.,12.0,0.,12.0
1981-08-30 10:19:49.240 ,3,1,0.,12.0,0.,12.0,0.,12.0,0.,12.0
1981-08-30 10:20:01.240 ,2,1,0.,12.0,0.,12.0,0.,12.0,0.,12.0
1981-08-30 10:20:13.240 ,2,1,0.,12.0,0.,12.0,0.,12.0,0.,12.0
1981-08-30 10:20:25.240 ,1,1,0.,12.0,0.,12.0,0.,12.0,0.,12.0
1981-08-30 10:20:37.240 ,1,1,0.,12.0,0.,12.0,0.,12.0,0.,12.0